Bakersfield, CA

7:56 PM PDT on April 26, 2018 (GMT -0700)
Meadows

Weather History for KBFL - August, 2014

Change the Weather History Date:

Saturday, August 23, 2014

  Actual Average Record
Temperature  
Mean Temperature 84 °F 81 °F  
Max Temperature 95 °F 95 °F 110 °F (1913)
Min Temperature 73 °F 68 °F 49 °F (1915)
Degree Days  
Heating Degree Days 0    
Month to date heating degree days 0  
Since 1 June heating degree days 0  
Since 1 July heating degree days 0  
Cooling Degree Days 19    
Month to date cooling degree days 477  
Year to date cooling degree days 2132  
Since 1 June cooling degree days 1680  
Growing Degree Days 34 (Base 50)    
Moisture  
Dew Point 45 °F    
Average Humidity 27    
Maximum Humidity 38    
Minimum Humidity 16    
Precipitation  
Precipitation 0.00 in 0.01 in 0.00 in (2018)
Month to date precipitation T 0.03  
Year to date precipitation 1.34 4.42  
Since 1 July precipitation T  
Snow  
Snow 0.00 in - - ()
Month to date snowfall 0.0  
Since 1 June snowfall 0.0  
Since 1 July snowfall 0.0  
Snow Depth 0.00 in    
Sea Level Pressure  
Sea Level Pressure 29.83 in    
Wind  
Wind Speed 8 mph (NNW)    
Max Wind Speed 16 mph    
Max Gust Speed 19 mph    
Visibility 10 miles    
Events      
T = Trace of Precipitation, MM = Missing Value Source: NWS Daily Summary

Daily Weather History Graph

Daily Weather History Graph

Search for Another Location

Airport or City:

Astronomy

Aug. 23, 2014 Rise Set
Actual Time 6:21 AM PDT 7:35 PM PDT
Civil Twilight 5:55 AM PDT 8:01 PM PDT
Nautical Twilight 5:23 AM PDT 8:33 PM PDT
Astronomical Twilight 4:50 AM PDT 9:05 PM PDT
Moon 4:43 AM PDT (8/23) 6:22 PM PDT (8/23)
Length of Visible Light 14h 06m
Length of Day
13h 13m
Waning Crescent, 3% of the Moon is Illuminated
Aug 23
Waning Crescent
Aug 25
New
Sep 2
First Quarter
Sep 8
Full
Sep 15
Last Quarter

Hourly Weather History & Observations

Time (PDT) Temp. Dew Point Humidity Pressure Visibility Wind Dir Wind Speed Gust Speed Precip Events Conditions
12:54 AM 78.1 °F 45.0 °F 31% 29.87 in 10.0 mi North 4.6 mph - N/A   Clear
1:54 AM 75.2 °F 37.4 °F 25% 29.89 in 10.0 mi NW 6.9 mph - N/A   Clear
2:54 AM 75.9 °F 36.0 °F 23% 29.86 in 10.0 mi NNE 9.2 mph - N/A   Clear
4:54 AM 73.4 °F 39.2 °F 29% 29.88 in 10.0 mi NNE 6.9 mph - N/A   Clear
5:54 AM 73.9 °F 42.1 °F 32% 29.86 in 10.0 mi NNE 9.2 mph - N/A   Clear
6:54 AM 73.9 °F 46.0 °F 37% 29.88 in 10.0 mi NNE 3.5 mph - N/A   Clear
7:54 AM 78.1 °F 45.0 °F 31% 29.88 in 10.0 mi Calm Calm - N/A   Clear
8:54 AM 80.1 °F 44.1 °F 28% 29.89 in 10.0 mi Calm Calm - N/A   Clear
9:54 AM 82.9 °F 46.0 °F 27% 29.89 in 10.0 mi NW 6.9 mph - N/A   Clear
10:54 AM 87.1 °F 48.0 °F 26% 29.89 in 10.0 mi WNW 9.2 mph - N/A   Clear
11:54 AM 87.1 °F 48.0 °F 26% 29.87 in 10.0 mi Variable 6.9 mph - N/A   Clear
12:54 PM 90.0 °F 48.0 °F 24% 29.86 in 10.0 mi WNW 6.9 mph - N/A   Clear
1:54 PM 91.0 °F 48.9 °F 23% 29.83 in 10.0 mi West 8.1 mph - N/A   Clear
2:54 PM 93.0 °F 46.9 °F 20% 29.80 in 10.0 mi NW 10.4 mph - N/A   Clear
3:54 PM 93.9 °F 41.0 °F 16% 29.78 in 10.0 mi NW 9.2 mph - N/A   Clear
4:54 PM 93.9 °F 45.0 °F 18% 29.76 in 10.0 mi WNW 9.2 mph - N/A   Clear
5:54 PM 93.9 °F 46.0 °F 19% 29.75 in 10.0 mi NW 9.2 mph - N/A   Clear
6:54 PM 91.9 °F 46.0 °F 21% 29.75 in 10.0 mi NW 8.1 mph - N/A   Clear
7:54 PM 87.1 °F 48.9 °F 27% 29.76 in 10.0 mi NW 13.8 mph - N/A   Clear
8:54 PM 82.9 °F 46.0 °F 27% 29.78 in 10.0 mi NNW 11.5 mph - N/A   Clear
9:54 PM 80.1 °F 46.0 °F 30% 29.79 in 10.0 mi NNW 9.2 mph - N/A   Clear
10:54 PM 80.1 °F 46.0 °F 30% 29.78 in 10.0 mi North 12.7 mph - N/A   Clear
11:54 PM 79.0 °F 45.0 °F 30% 29.81 in 10.0 mi Calm Calm - N/A   Clear